Date String (YYYY-MM-DD hh:mm:ss) UTC,Instrument flags,Ambient pressure (hPa),Sample flow (lpm),Bypass flow (lpm),Sample temperature (°C),Ambient temperature (°C),ASC tube jacket temperature (°C),LED temperature (°C),Box temperature (°C),Sample RH (%),Span deviation,Mass concentration (μg/m³),Mass concentration (μg/m³),Mass concentration (μg/m³)
DateTimeUTC,F1_M11,P_M11,Q1_M11,Q2_M11,T1_M11,T2_M11,T3_M11,T4_M11,T5_M11,U1_M11,ZSPAN_M11,X0_M11,X2_M11,X1_M11
2022-05-03 12:00:00,,0822.3,4.99,0.00,23.5,22.6,00.0,32.4,25.3,21.6,0000.7,0010.40,0008.22,0008.10
2022-05-03 12:01:00,,0822.3,5.01,0.00,23.5,22.6,00.0,32.4,25.3,21.6,0000.9,0010.26,0008.16,0008.07
2022-05-03 12:02:00,,0822.3,4.99,0.00,23.5,22.6,00.0,32.4,25.3,21.6,0000.8,0010.16,0008.11,0008.03
2022-05-03 12:03:00,,0822.3,5.00,0.00,23.5,22.6,00.0,32.4,25.2,21.6,0000.3,0009.80,0008.08,0008.00
2022-05-03 12:04:00,,0822.3,5.02,0.00,23.5,22.6,00.0,32.4,25.2,21.6,0000.2,0009.37,0008.04,0007.98
2022-05-03 12:05:00,,0822.4,4.99,0.00,23.5,22.6,00.0,32.4,25.2,21.6,-000.1,0009.29,0008.02,0007.96
2022-05-03 12:06:00,,0822.3,5.00,0.00,23.4,22.6,00.0,32.4,25.2,21.6,-000.1,0009.26,0008.00,0007.96
2022-05-03 12:07:00,,0822.3,5.01,0.00,23.5,22.6,00.0,32.4,25.2,21.6,0000.0,0009.30,0008.01,0007.96
2022-05-03 12:08:00,,0822.3,4.99,0.00,23.4,22.6,00.0,32.4,25.2,21.6,-000.1,0009.32,0008.02,0007.95
2022-05-03 12:09:00,,0822.3,4.99,0.00,23.4,22.6,00.0,32.4,25.2,21.6,-000.0,0009.33,0008.01,0007.94
2022-05-03 12:10:00,,0822.4,5.00,0.00,23.4,22.6,00.0,32.4,25.2,21.6,0000.0,0009.31,0007.99,0007.94
2022-05-03 12:11:00,,0822.4,4.99,0.00,23.4,22.6,00.0,32.4,25.2,21.6,0000.1,0009.29,0007.99,0007.94
2022-05-03 12:12:00,,0822.4,5.00,0.00,23.4,22.6,00.0,32.4,25.2,21.7,-000.2,0009.29,0007.98,0007.93
2022-05-03 12:13:00,,0822.4,5.01,0.00,23.5,22.6,00.0,32.4,25.2,23.4,0000.0,0009.32,0008.00,0007.94
2022-05-03 12:14:00,,0822.4,5.00,0.00,23.5,22.6,00.0,32.4,25.2,24.0,0000.2,0009.35,0008.02,0007.96
2022-05-03 12:15:00,,0822.4,5.00,0.00,23.4,22.6,00.0,32.4,25.2,22.5,0000.3,0009.39,0008.03,0007.96
2022-05-03 12:16:00,,0822.3,4.99,0.00,23.5,22.6,00.0,32.4,25.3,22.1,0000.3,0009.41,0008.05,0007.98
2022-05-03 12:17:00,,0822.3,4.99,0.00,23.5,22.6,00.0,32.4,25.3,22.0,0000.3,0009.50,0008.08,0008.00
2022-05-03 12:18:00,,0822.3,5.02,0.00,23.5,22.6,00.0,32.4,25.3,21.9,-000.2,0009.57,0008.09,0008.02
2022-05-03 12:19:00,,0822.3,4.99,0.00,23.5,22.6,00.0,32.4,25.3,21.9,-000.2,0009.64,0008.12,0008.04
2022-05-03 12:20:00,,0822.3,5.01,0.00,23.5,22.6,00.0,32.4,25.3,21.8,-000.3,0009.77,0008.15,0008.07
2022-05-03 12:21:00,,0822.3,4.99,0.00,23.5,22.6,00.0,32.4,25.3,21.8,-000.2,0009.82,0008.19,0008.10
2022-05-03 12:22:00,,0822.3,5.00,0.00,23.5,22.6,00.0,32.4,25.2,21.8,-000.3,0009.92,0008.24,0008.14
2022-05-03 12:23:00,,0822.3,5.00,0.00,23.5,22.6,00.0,32.4,25.3,21.8,-000.3,0010.00,0008.29,0008.18
2022-05-03 12:24:00,,0822.3,5.00,0.00,23.5,22.7,00.0,32.4,25.3,21.8,-000.6,0010.03,0008.30,0008.19
2022-05-03 12:25:00,,0822.4,5.00,0.00,23.5,22.7,00.0,32.4,25.3,21.8,-000.6,0010.08,0008.33,0008.22
2022-05-03 12:26:00,,0822.3,5.01,0.00,23.5,22.7,00.0,32.4,25.3,21.8,-000.8,0010.14,0008.36,0008.24
2022-05-03 12:27:00,,0822.4,4.99,0.00,23.5,22.7,00.0,32.4,25.3,21.8,-000.8,0010.20,0008.38,0008.26
2022-05-03 12:28:00,,0822.3,5.01,0.00,23.5,22.7,00.0,32.4,25.3,21.8,-000.7,0010.20,0008.42,0008.30
2022-05-03 12:29:00,,0822.4,5.01,0.00,23.5,22.7,00.0,32.4,25.3,21.8,-000.6,0010.26,0008.48,0008.34
2022-05-03 12:30:00,,0822.4,4.99,0.00,23.5,22.7,00.0,32.4,25.3,21.8,-000.6,0010.29,0008.51,0008.36
2022-05-03 12:31:00,,0822.4,4.99,0.00,23.5,22.7,00.0,32.4,25.3,21.8,-000.3,0010.32,0008.55,0008.38
2022-05-03 12:32:00,,0822.5,5.02,0.00,23.5,22.7,00.0,32.4,25.3,21.8,-000.3,0010.44,0008.58,0008.40
2022-05-03 12:33:00,,0822.5,4.99,0.00,23.5,22.7,00.0,32.4,25.4,21.8,-000.3,0010.45,0008.57,0008.39
2022-05-03 12:34:00,,0822.5,4.99,0.00,23.5,22.7,00.0,32.4,25.3,21.7,-000.4,0010.49,0008.58,0008.40
2022-05-03 12:35:00,,0822.4,5.01,0.00,23.5,22.7,00.0,32.4,25.3,21.7,-000.1,0010.52,0008.61,0008.42
2022-05-03 12:36:00,,0822.5,4.99,0.00,23.5,22.7,00.0,32.4,25.3,21.8,-000.3,0010.57,0008.64,0008.44
2022-05-03 12:37:00,,0822.4,5.01,0.00,23.5,22.7,00.0,32.4,25.3,21.7,-000.3,0010.56,0008.64,0008.44
2022-05-03 12:38:00,,0822.4,4.99,0.00,23.5,22.7,00.0,32.4,25.4,21.7,-000.2,0010.55,0008.64,0008.45
2022-05-03 12:39:00,,0822.5,5.00,0.00,23.6,22.7,00.0,32.5,25.4,21.7,-000.3,0010.56,0008.64,0008.43
2022-05-03 12:40:00,,0822.4,5.00,0.00,23.6,22.7,00.0,32.5,25.4,21.7,-000.2,0010.52,0008.61,0008.41
2022-05-03 12:41:00,,0822.4,4.99,0.00,23.6,22.7,00.0,32.5,25.4,21.8,-000.1,0010.54,0008.59,0008.41
2022-05-03 12:42:00,,0822.4,5.01,0.00,23.6,22.7,00.0,32.5,25.4,21.7,-000.4,0010.47,0008.57,0008.40
2022-05-03 12:43:00,,0822.5,4.99,0.00,23.6,22.7,00.0,32.5,25.4,21.7,-000.7,0010.43,0008.55,0008.38
2022-05-03 12:44:00,,0822.5,4.99,0.00,23.6,22.7,00.0,32.5,25.4,21.7,-001.0,0010.52,0008.56,0008.40
2022-05-03 12:45:00,,0822.4,5.01,0.00,23.6,22.7,00.0,32.5,25.4,21.7,-000.9,0010.61,0008.60,0008.43
2022-05-03 12:46:00,,0822.5,5.00,0.00,23.6,22.7,00.0,32.5,25.4,21.8,-001.2,0010.73,0008.62,0008.45
2022-05-03 12:47:00,,0822.4,4.99,0.00,23.6,22.7,00.0,32.5,25.4,21.8,-001.1,0010.96,0008.63,0008.46
2022-05-03 12:48:00,,0822.4,5.01,0.00,23.6,22.7,00.0,32.5,25.4,21.8,-000.8,0011.01,0008.65,0008.48
2022-05-03 12:49:00,,0822.4,5.01,0.00,23.6,22.7,00.0,32.5,25.4,21.8,-000.8,0011.08,0008.69,0008.51
2022-05-03 12:50:00,,0822.4,4.99,0.00,23.6,22.7,00.0,32.5,25.4,21.9,-001.0,0011.11,0008.69,0008.53
2022-05-03 12:51:00,,0822.4,5.00,0.00,23.6,22.7,00.0,32.5,25.4,21.9,-001.0,0011.27,0008.73,0008.57
2022-05-03 12:52:00,,0822.4,5.00,0.00,23.6,22.7,00.0,32.5,25.4,21.9,-000.9,0011.37,0008.75,0008.59
2022-05-03 12:53:00,,0822.5,4.99,0.00,23.6,22.7,00.0,32.5,25.4,21.9,-001.2,0011.45,0008.75,0008.59
2022-05-03 12:54:00,,0822.4,5.01,0.00,23.6,22.7,00.0,32.5,25.4,21.9,-001.3,0011.45,0008.78,0008.61
2022-05-03 12:55:00,,0822.4,4.99,0.00,23.6,22.7,00.0,32.5,25.5,21.9,-001.2,0011.50,0008.79,0008.61
2022-05-03 12:56:00,,0822.4,4.99,0.00,23.6,22.8,00.0,32.5,25.5,22.0,-001.4,0011.52,0008.79,0008.61
2022-05-03 12:57:00,,0822.4,5.02,0.00,23.6,22.8,00.0,32.5,25.5,22.0,-001.3,0011.42,0008.78,0008.60
2022-05-03 12:58:00,,0822.4,5.00,0.00,23.6,22.8,00.0,32.5,25.5,22.0,-001.0,0011.18,0008.77,0008.59
2022-05-03 12:59:00,,0822.4,5.00,0.00,23.6,22.7,00.0,32.5,25.4,22.1,-001.0,0011.16,0008.77,0008.61
